Temperature
23 21 20 20 20 21 21 20 19 19 19 18 17 16 16 16 16 16 16 16 16 16 16 15 15 15 14 14 14 13 13 13 13 13 13 13 13 13 13 13 13 14 14 14
21 21 22 22 21 21 20 20 19 19 19 18 17 16 16 16 16 16 16 16 16 16 16 15 15 15 14 14 14 13 13 13 13 13 12 12 12 12 13 13 13 13 13 14
22 22 22 22 21 21 20 20 19 19 18 17 17 16 16 16 16 16 16 16 16 16 16 15 15 15 14 14 14 13 13 13 13 12 12 12 12 12 12 13 13 13 13 13
21 22 22 22 21 21 20 20 20 19 17 16 17 15 15 15 15 15 16 16 16 16 16 15 15 15 14 14 13 13 13 13 12 12 12 12 12 12 12 12 12 13 13 13
21 22 22 22 22 21 20 19 19 18 17 16 16 15 14 15 15 14 15 16 16 16 16 15 15 14 14 14 13 13 13 13 12 12 12 12 12 12 12 12 12 12 12 13
21 21 22 21 20 20 18 17 16 14 14 16 16 15 14 13 14 15 15 16 16 16 16 15 15 14 14 14 13 13 13 13 12 12 12 12 12 12 12 12 12 12 12 12
21 21 21 21 20 19 18 16 16 16 15 15 15 15 14 15 14 15 16 16 16 16 16 15 15 14 14 14 13 13 13 13 12 12 12 12 12 12 12 12 12 12 12 12
20 20 21 21 20 19 18 17 16 17 15 14 15 15 15 16 16 16 16 17 16 16 15 15 15 14 14 14 13 13 13 13 12 12 12 12 11 11 11 11 11 11 12 12
19 19 20 21 20 19 17 16 15 14 15 15 14 15 15 16 16 16 16 16 16 16 16 15 15 14 14 14 13 13 13 13 12 12 12 12 11 11 11 11 11 11 11 12
19 19 20 20 20 19 18 14 13 14 16 15 15 15 15 16 15 14 15 16 16 16 16 15 15 14 14 14 13 13 13 12 12 12 12 11 11 11 11 11 11 11 11 11
19 18 19 19 20 19 17 16 13 12 13 14 14 14 15 15 15 14 15 16 16 16 16 15 15 15 14 14 14 13 13 13 12 12 12 11 11 11 11 11 11 11 11 11
17 16 17 18 19 19 18 17 14 15 15 12 13 14 15 15 15 16 16 17 17 16 16 15 15 15 14 14 14 13 13 12 12 12 12 11 11 11 11 11 11 11 11 11
16 16 17 18 17 18 19 16 15 13 12 11 13 14 15 15 15 16 16 17 17 16 16 15 15 15 14 14 14 13 13 12 12 12 12 11 11 11 11 11 11 11 11 11
17 16 17 18 18 17 18 17 14 14 13 13 13 14 15 15 14 16 17 17 17 16 16 15 15 15 14 14 14 13 13 12 12 12 11 11 11 11 11 11 11 11 11 11
16 17 18 17 18 18 18 18 15 15 15 14 15 15 15 15 15 17 17 17 17 16 16 16 15 15 15 14 14 13 13 12 12 12 12 11 11 11 11 11 11 11 11 11
15 17 18 19 18 18 18 18 16 16 16 15 15 15 15 17 17 17 17 17 17 17 16 16 15 15 15 14 14 13 13 12 12 12 12 11 11 11 11 11 11 11 11 11
14 16 17 17 17 19 18 18 17 17 16 16 16 16 16 16 16 18 19 18 18 18 17 16 16 15 15 14 14 13 13 12 12 12 12 11 11 11 11 11 11 11 11 11
14 14 13 15 18 19 18 18 17 17 17 15 16 16 16 17 19 19 19 19 19 18 17 17 16 15 15 14 14 13 13 13 12 12 12 11 11 11 11 11 11 11 11 11
13 14 13 14 16 17 18 19 18 18 19 18 16 16 18 17 17 19 20 19 19 18 18 17 16 16 15 14 14 13 13 13 12 12 12 11 11 11 11 11 11 11 11 11
13 12 13 14 18 18 19 19 19 19 19 19 18 18 17 16 15 17 20 20 19 18 18 17 16 16 15 15 14 14 13 13 12 12 12 11 11 11 11 11 11 11 11 11
15 13 13 14 16 16 17 19 20 19 19 21 20 20 18 17 18 21 20 20 19 19 18 17 16 16 15 15 14 14 14 13 13 12 12 12 11 11 11 11 11 11 11 11
14 14 13 13 16 17 18 18 18 18 21 21 21 21 21 21 21 20 20 20 19 19 18 17 17 16 16 15 15 14 14 13 13 12 12 12 11 11 11 11 11 11 11 11
13 14 13 14 16 18 18 18 20 20 20 21 21 21 21 21 21 21 20 20 19 19 18 17 17 16 16 15 15 15 14 13 13 13 12 12 12 11 11 11 11 11 11 11
13 13 13 13 15 17 18 18 19 20 20 21 21 21 21 21 21 20 20 20 19 19 18 18 17 17 16 16 15 15 14 14 13 13 13 12 12 12 11 11 11 11 11 11
13 12 14 15 14 17 19 18 19 20 21 21 21 21 21 21 21 20 20 20 19 19 18 18 17 17 17 16 16 15 15 14 14 13 13 13 12 12 12 11 11 11 11 11
11 11 13 15 14 13 16 17 18 20 20 21 21 21 20 20 20 20 20 20 19 19 18 18 17 17 17 16 16 15 15 14 14 14 13 13 12 12 12 12 11 11 11 11
Wind_Speed
3 5 3 6 7 4 5 5 3 3 3 4 5 5 4 3 3 4 4 4 5 5 5 5 6 6 6 6 7 7 7 7 6 4 5 5 5 6 6 5 7 7 7 7
5 1 4 3 4 4 4 4 2 1 2 3 2 4 3 4 5 6 6 6 6 5 5 6 6 6 6 7 7 7 8 8 7 5 4 4 5 5 6 5 6 7 7 7
5 3 2 5 5 4 2 5 4 4 3 4 2 5 4 3 2 3 4 4 5 5 6 7 7 7 7 8 8 8 8 8 8 7 5 5 4 5 4 5 5 5 7 7
2 0 4 5 3 4 2 3 4 5 3 2 1 4 6 4 4 4 5 5 6 6 6 6 7 8 8 8 8 8 8 8 7 6 5 6 5 6 6 6 6 7 6 6
2 2 4 3 2 3 3 4 4 3 4 1 1 2 8 1 5 7 7 7 7 6 6 7 7 8 8 8 7 7 8 8 7 7 6 6 6 6 6 7 7 7 6 5
2 2 2 4 4 4 6 7 7 6 5 2 3 4 7 4 7 6 5 6 6 6 6 7 7 7 7 7 7 7 8 8 8 8 7 7 8 9 9 8 7 6 5 4
4 4 3 3 5 5 6 6 5 5 4 5 2 3 8 6 7 6 6 7 6 5 5 6 7 7 8 9 8 8 8 8 9 9 8 8 8 8 8 8 7 7 5 5
5 1 2 2 4 4 3 7 6 3 4 6 3 5 7 5 3 4 5 5 5 5 5 6 7 7 7 8 8 8 8 8 9 9 9 8 8 6 6 6 6 6 5 5
7 4 2 2 3 7 5 3 5 6 1 3 6 7 8 2 3 3 4 4 6 6 6 6 6 6 7 7 7 7 7 8 8 9 8 8 8 7 7 7 6 6 6 5
8 5 1 1 5 5 4 8 5 4 1 4 7 6 5 6 8 7 7 7 8 6 6 6 6 6 6 5 6 6 6 6 7 8 7 7 8 8 7 7 8 8 7 7
4 6 1 2 3 5 4 5 5 4 4 4 5 8 6 7 8 9 10 8 8 7 6 6 6 5 5 6 6 6 6 6 7 8 7 8 8 8 7 7 8 7 7 7
4 6 2 3 2 2 4 7 7 4 3 4 3 8 6 7 7 8 9 8 7 6 5 5 5 5 5 6 6 5 6 6 6 7 7 7 8 8 8 8 8 8 8 7
6 6 4 5 5 1 2 4 5 6 5 5 3 8 4 3 5 7 8 8 6 6 5 4 4 5 5 5 5 5 5 6 6 6 7 8 8 8 8 8 8 8 8 8
6 5 6 7 7 6 4 5 6 6 4 5 8 9 9 8 8 8 8 8 7 6 6 5 5 5 5 5 5 5 5 5 5 6 6 7 8 8 8 8 8 8 8 8
5 4 4 4 3 4 5 6 8 8 8 8 8 8 12 10 9 9 8 7 6 7 7 6 6 5 4 4 4 4 4 5 5 5 6 7 7 7 7 8 8 8 8 8
4 4 2 2 2 3 4 7 8 8 6 8 8 10 10 7 5 6 7 8 9 9 8 7 6 5 5 5 4 3 4 4 4 5 6 6 7 7 8 8 8 8 9 9
3 5 3 2 4 3 6 8 9 7 8 9 9 10 6 4 7 8 9 9 10 10 9 8 7 6 6 5 4 3 3 3 4 5 5 6 6 7 7 8 8 8 8 8
6 5 4 1 2 4 8 4 6 7 8 10 9 8 7 8 6 6 8 9 10 9 8 8 6 6 5 3 3 2 1 2 3 4 5 6 6 6 7 7 8 7 6 7
4 7 5 3 0 7 8 3 6 5 6 6 9 9 4 1 3 5 7 9 10 10 8 8 7 5 4 4 3 2 1 2 3 4 5 5 5 5 6 7 7 5 5 6
6 6 6 4 1 4 6 3 2 3 5 5 6 5 3 5 1 6 5 7 9 8 7 6 5 4 5 5 4 3 2 2 3 4 4 4 4 4 5 5 5 4 4 5
3 4 4 4 3 8 8 4 2 2 6 5 4 5 8 8 8 4 3 4 6 7 7 7 6 6 6 5 5 4 4 5 5 4 3 3 3 3 3 4 4 4 4 5
7 6 5 5 3 6 4 4 5 7 4 3 4 5 8 9 7 4 4 5 6 6 6 7 7 7 5 6 6 5 6 6 3 2 2 2 3 3 2 3 4 4 4 5
7 7 7 8 7 5 2 5 5 3 4 5 4 5 6 6 6 6 5 5 6 7 7 6 7 7 5 6 7 7 7 4 3 2 2 2 2 2 2 2 3 3 4 4
3 2 4 4 5 4 3 4 6 5 5 6 5 4 4 5 6 6 5 5 6 6 7 6 7 7 7 7 8 9 6 4 4 4 3 2 2 2 1 1 1 1 2 2
2 3 2 4 6 7 5 7 9 7 5 5 4 2 2 4 4 4 5 6 6 6 5 6 8 9 10 8 8 8 7 6 6 5 4 3 3 2 2 1 2 2 2 2
2 3 4 4 2 2 6 8 10 8 7 6 4 4 3 1 4 4 5 5 5 6 5 6 8 9 9 8 8 8 8 8 7 6 5 4 4 3 3 2 3 4 4 4
Wind_Direction
63 87 160 201 196 192 171 177 213 236 162 157 204 232 229 196 180 197 216 235 256 268 282 298 308 313 313 317 320 317 319 318 325 324 323 318 314 311 309 303 307 308 301 292
59 155 215 155 129 115 129 149 185 71 91 140 198 262 253 215 211 213 217 230 249 272 292 296 304 312 312 310 314 317 317 314 316 308 297 283 285 291 289 294 303 305 303 295
154 212 140 119 113 112 138 174 192 177 76 57 65 312 265 254 226 223 224 232 249 260 273 289 302 306 311 312 313 317 313 313 314 318 314 315 311 307 310 311 309 304 306 297
146 321 113 111 131 142 227 228 163 141 125 282 121 288 283 252 263 252 242 244 260 275 280 287 297 305 307 305 311 314 315 317 319 326 327 323 320 312 301 302 298 304 302 298
131 101 115 127 151 150 162 60 93 108 128 26 14 213 289 297 258 256 246 244 257 269 275 284 292 297 302 308 316 319 323 324 325 329 328 322 317 305 305 308 310 313 312 304
78 44 89 126 79 83 111 71 56 51 69 325 242 188 281 239 228 246 238 240 254 267 280 289 297 305 309 315 323 329 332 327 330 333 332 329 323 322 326 325 325 324 318 311
45 20 23 101 93 48 75 81 24 355 3 263 262 212 254 255 231 223 226 237 251 262 276 290 301 309 312 317 324 331 333 328 332 336 334 332 327 324 324 324 325 328 327 320
138 269 333 55 136 133 107 127 151 221 251 288 307 246 258 264 250 225 222 231 249 266 273 280 287 296 303 311 323 331 331 327 332 336 332 330 332 328 324 325 327 326 322 317
158 198 348 68 110 123 117 109 152 133 187 288 288 285 303 221 243 233 237 244 255 263 271 276 289 298 303 312 318 322 327 328 331 335 333 333 338 337 333 331 331 329 327 326
139 143 274 92 77 46 113 139 98 108 139 297 301 288 264 255 245 245 242 244 252 262 273 280 288 296 304 310 314 325 330 326 326 335 336 340 337 338 336 338 340 337 336 337
110 126 66 51 158 171 115 97 104 109 146 164 294 282 230 230 229 228 235 238 243 249 259 269 282 296 306 317 325 331 337 337 338 338 335 339 340 339 341 344 340 336 336 340
105 113 139 266 283 228 178 165 148 150 209 173 204 270 268 244 242 229 237 241 242 243 250 263 279 300 313 321 327 331 334 336 334 333 335 339 340 342 346 345 342 342 341 341
130 110 80 349 341 324 182 152 142 125 118 158 199 266 292 286 259 241 238 242 243 246 253 268 285 295 302 311 319 325 330 332 332 337 342 345 346 347 345 342 343 345 346 347
111 113 160 194 220 197 200 177 152 136 159 211 230 258 288 272 256 251 240 238 236 243 248 256 272 281 288 300 309 318 325 331 335 341 347 348 344 342 342 344 347 350 352 355
101 140 193 223 225 184 212 200 177 187 194 204 240 245 263 258 241 239 233 228 230 242 245 247 252 265 279 293 303 314 320 331 338 344 347 343 338 342 349 355 356 356 359 3
81 126 113 351 0 214 249 238 204 216 216 230 259 273 260 260 237 234 227 217 226 236 239 242 243 250 260 269 281 300 312 325 337 342 340 338 345 351 354 355 357 1 4 3
96 119 110 295 324 14 280 242 199 212 213 198 227 246 262 251 237 231 224 216 223 230 231 232 232 235 242 249 252 264 288 320 339 338 338 343 349 354 353 357 5 7 4 5
123 102 110 96 42 252 246 254 192 214 246 218 232 250 242 239 250 247 220 212 224 226 223 224 223 227 230 231 232 241 289 324 331 334 335 341 350 351 353 1 3 359 0 4
121 126 109 106 242 290 301 263 179 192 280 227 226 254 257 232 2 301 231 209 217 217 213 213 211 208 208 214 213 203 271 312 323 323 325 332 342 347 355 359 354 353 1 8
67 89 107 118 146 256 259 289 191 117 300 269 211 239 184 124 49 274 255 211 217 213 205 203 196 189 201 211 186 190 240 277 288 293 305 320 336 346 351 349 349 350 360 4
87 66 115 148 218 265 254 263 129 104 262 276 213 211 174 191 213 243 259 214 205 203 201 191 185 197 210 194 175 204 233 250 259 275 300 324 336 338 346 352 357 359 9 15
165 151 168 148 185 262 265 154 176 225 261 268 238 210 203 227 248 255 245 227 207 200 197 188 191 212 213 187 183 212 235 243 248 258 288 312 330 342 5 12 10 13 19 24
187 186 182 186 207 242 274 227 271 265 263 264 251 243 220 236 246 240 236 229 218 208 204 194 197 214 219 202 194 214 235 225 217 228 256 283 312 338 4 17 11 11 15 22
248 154 164 241 267 271 284 297 306 275 257 273 268 261 212 229 249 244 237 229 224 218 210 199 196 213 228 217 211 221 226 203 200 221 238 250 264 292 328 358 359 6 357 3
248 165 189 254 299 326 343 354 334 321 307 314 316 286 239 236 255 242 237 234 228 224 215 200 205 219 230 223 222 225 213 193 204 221 229 235 231 236 257 266 253 252 246 229
195 172 179 217 282 286 298 331 341 342 344 339 346 353 349 264 263 256 246 241 231 227 218 216 222 228 235 228 230 227 206 192 199 216 226 224 221 223 227 251 285 262 247 265
Height
1536 1542 1549 1547 1547 1548 1551 1557 1560 1558 1555 1558 1561 1561 1559 1559 1560 1560 1560 1560 1560 1559 1558 1557 1555 1552 1549 1546 1542 1539 1535 1531 1527 1523 1519 1516 1513 1510 1507 1505 1503 1501 1500 1500
1542 1545 1542 1541 1544 1547 1551 1557 1559 1558 1556 1559 1562 1562 1559 1558 1558 1558 1559 1559 1558 1558 1557 1555 1553 1551 1548 1545 1541 1537 1534 1530 1526 1522 1518 1514 1510 1507 1504 1501 1499 1497 1496 1495
1543 1542 1539 1542 1546 1550 1553 1557 1558 1560 1559 1561 1563 1565 1560 1557 1557 1557 1557 1557 1557 1557 1556 1554 1552 1549 1546 1543 1540 1536 1532 1528 1525 1521 1517 1513 1509 1505 1501 1498 1496 1494 1492 1491
1541 1539 1540 1544 1547 1549 1556 1551 1553 1557 1565 1571 1567 1579 1563 1558 1557 1556 1555 1555 1555 1555 1554 1553 1551 1548 1545 1542 1538 1535 1531 1527 1523 1519 1515 1511 1506 1502 1499 1495 1493 1490 1489 1487
1542 1540 1542 1545 1547 1547 1552 1551 1554 1558 1565 1573 1571 1577 1568 1559 1558 1555 1553 1553 1553 1553 1553 1551 1549 1547 1544 1541 1537 1534 1530 1526 1522 1518 1514 1509 1505 1501 1497 1494 1490 1488 1486 1484
1541 1540 1541 1543 1546 1547 1550 1556 1561 1568 1573 1581 1572 1578 1572 1563 1555 1552 1551 1551 1551 1552 1551 1550 1548 1546 1543 1540 1537 1533 1529 1525 1521 1517 1512 1508 1504 1500 1496 1492 1488 1485 1483 1482
1546 1544 1542 1543 1547 1550 1554 1567 1582 1581 1589 1584 1571 1574 1568 1552 1550 1549 1548 1549 1550 1550 1549 1548 1546 1544 1542 1539 1536 1532 1528 1524 1520 1516 1512 1507 1503 1499 1495 1490 1487 1484 1481 1480
1554 1557 1546 1544 1547 1553 1557 1564 1582 1588 1593 1586 1573 1573 1559 1548 1547 1546 1547 1548 1548 1548 1548 1547 1545 1543 1541 1538 1535 1531 1527 1523 1519 1515 1511 1507 1503 1499 1494 1490 1487 1484 1480 1478
1552 1555 1546 1544 1545 1549 1558 1565 1567 1581 1582 1586 1579 1567 1553 1546 1546 1545 1546 1546 1546 1546 1546 1545 1544 1542 1540 1537 1534 1530 1527 1523 1519 1515 1510 1506 1502 1498 1494 1491 1487 1484 1480 1478
1542 1553 1548 1546 1546 1549 1552 1562 1573 1580 1586 1590 1582 1572 1563 1549 1546 1544 1544 1544 1544 1544 1544 1543 1542 1541 1539 1536 1533 1530 1526 1522 1519 1515 1510 1506 1502 1499 1495 1491 1487 1484 1480 1477
1538 1551 1553 1549 1551 1553 1558 1563 1572 1582 1583 1591 1590 1575 1548 1544 1541 1541 1540 1541 1542 1542 1542 1542 1541 1539 1537 1535 1532 1529 1526 1522 1518 1514 1510 1506 1503 1499 1495 1492 1488 1484 1481 1478
1540 1552 1560 1553 1548 1548 1550 1556 1566 1575 1579 1585 1589 1574 1541 1539 1538 1538 1538 1539 1539 1540 1540 1540 1539 1538 1536 1534 1531 1528 1525 1521 1518 1514 1510 1507 1503 1499 1496 1492 1488 1485 1482 1478
1540 1552 1564 1563 1561 1552 1550 1554 1559 1568 1578 1587 1586 1568 1539 1537 1536 1536 1536 1536 1537 1538 1538 1538 1538 1536 1535 1533 1530 1528 1525 1521 1518 1514 1511 1507 1504 1500 1496 1493 1489 1486 1482 1479
1535 1548 1557 1563 1558 1552 1551 1553 1558 1563 1574 1578 1572 1558 1542 1537 1535 1533 1533 1534 1535 1536 1536 1536 1536 1535 1534 1532 1530 1527 1524 1521 1518 1514 1511 1508 1504 1501 1497 1494 1490 1487 1483 1480
1536 1546 1546 1547 1545 1546 1546 1548 1553 1556 1558 1563 1555 1551 1539 1532 1530 1529 1530 1531 1532 1533 1533 1534 1534 1533 1532 1531 1529 1527 1524 1521 1518 1515 1512 1508 1505 1502 1499 1495 1492 1489 1485 1482
1537 1544 1544 1545 1543 1544 1545 1543 1547 1549 1549 1550 1548 1544 1529 1527 1527 1527 1527 1528 1529 1530 1531 1531 1532 1532 1531 1530 1528 1526 1524 1521 1518 1515 1512 1509 1507 1503 1500 1497 1494 1490 1487 1484
1541 1544 1551 1554 1548 1544 1549 1539 1541 1541 1539 1541 1543 1535 1526 1526 1524 1524 1524 1525 1526 1527 1528 1529 1530 1530 1529 1529 1527 1525 1523 1521 1518 1516 1513 1510 1508 1505 1502 1498 1495 1492 1489 1486
1541 1548 1557 1558 1551 1556 1544 1530 1531 1533 1532 1531 1529 1525 1524 1523 1522 1522 1522 1522 1523 1524 1526 1527 1527 1528 1528 1527 1526 1525 1523 1521 1519 1516 1514 1511 1509 1506 1503 1500 1497 1494 1492 1489
1536 1545 1557 1563 1559 1554 1537 1527 1528 1531 1529 1523 1524 1521 1521 1521 1521 1520 1519 1520 1521 1522 1524 1525 1526 1526 1526 1526 1525 1524 1522 1520 1518 1516 1514 1512 1510 1507 1504 1502 1499 1496 1494 1491
1539 1542 1554 1561 1555 1555 1537 1525 1524 1528 1530 1520 1519 1519 1520 1521 1526 1521 1517 1518 1519 1520 1522 1523 1524 1524 1524 1524 1524 1523 1521 1520 1518 1517 1515 1513 1510 1508 1506 1503 1501 1498 1496 1493
1543 1549 1555 1559 1557 1549 1529 1524 1526 1537 1533 1518 1517 1517 1517 1518 1518 1517 1516 1516 1517 1518 1520 1521 1522 1522 1523 1523 1522 1521 1520 1519 1518 1517 1515 1513 1511 1509 1507 1504 1502 1500 1498 1496
1543 1550 1554 1558 1556 1548 1523 1523 1527 1526 1518 1517 1516 1515 1515 1515 1515 1515 1515 1515 1516 1517 1518 1519 1520 1520 1521 1521 1521 1520 1519 1519 1517 1516 1515 1513 1511 1509 1508 1506 1503 1501 1499 1497
1537 1536 1539 1541 1538 1526 1523 1522 1520 1519 1517 1516 1515 1514 1514 1513 1513 1513 1513 1514 1514 1515 1516 1517 1517 1518 1519 1519 1519 1518 1518 1517 1516 1515 1514 1513 1511 1510 1508 1506 1504 1502 1501 1499
1530 1529 1531 1532 1525 1521 1520 1519 1517 1516 1515 1514 1513 1512 1512 1511 1511 1511 1511 1512 1512 1513 1514 1514 1515 1516 1516 1516 1516 1516 1516 1516 1515 1514 1513 1512 1511 1509 1508 1507 1505 1503 1502 1500
1527 1528 1528 1527 1522 1519 1517 1516 1515 1513 1513 1512 1511 1511 1510 1510 1510 1510 1509 1510 1510 1511 1512 1512 1512 1513 1513 1514 1514 1514 1514 1514 1513 1512 1512 1511 1510 1509 1508 1506 1505 1504 1502 1501
1526 1526 1527 1525 1523 1522 1519 1517 1515 1513 1511 1511 1510 1509 1509 1509 1508 1508 1508 1508 1508 1509 1509 1509 1510 1510 1510 1511 1511 1511 1511 1511 1510 1510 1510 1509 1508 1507 1506 1505 1505 1504 1502 1501